Location: Dumbr?vi?a
(45.8833°N, 22.7000°E)
Time: 15:56:10
(UTC+00:00)

USA 305 - Pass Details

Date: 03 March 2021
Orbit: 564 x 577 km, 54.0° (Epoch: 10 April)

Event Time Altitude Azimuth Distance (km) Brightness Sun altitude
Rises 18:07:34 0° 292° (WNW) 2,783 7.9 -19.7°
Reaches altitude 10° 18:10:06 10° 304° (NW) 1,882 6.5 -20.1°
Maximum altitude 18:13:48 27° 4° (N) 1,107 4.4 -20.7°
Enters shadow 18:14:51 24° 29° (NNE) 1,189 4.3 -20.9°
